Location: Antin
(43.3330°N, 0.2804°E)
Time: 23:40:41
(UTC+00:00)

Meteor 1-24 Rocket - Pass Details

Date: 16 October 2021
Orbit: 790 x 927 km, 81.3° (Epoch: 04 December)

Event Time Altitude Azimuth Distance (km) Brightness Sun altitude
Rises 17:41:45 0° 347° (NNW) 3,428 7.0 -5.8°
Reaches altitude 10° 17:44:09 10° 345° (NNW) 2,508 6.3 -6.2°
Maximum altitude 17:49:49 68° 263° (W) 949 4.3 -7.3°
Drops below altitude 10° 17:55:38 10° 182° (S) 2,577 6.3 -8.3°
Sets 17:58:08 0° 180° (S) 3,529 7.0 -8.8°
